Weather History for K06D - February, 2014

Change the Weather History Date:

Wednesday, February 5, 2014

  Actual Average (KRUG) Record (KRUG)
Temperature  
Mean Temperature -4 °F -  
Max Temperature 0 °F 18 °F 53 °F (1963)
Min Temperature -7 °F 0 °F -35 °F (1982)
Degree Days  
Heating Degree Days 68    
Moisture  
Dew Point -11 °F    
Average Humidity 73    
Maximum Humidity 78    
Minimum Humidity 65    
Precipitation  
Precipitation 0.00 in - - ()
Sea Level Pressure  
Sea Level Pressure 30.49 in    
Wind  
Wind Speed 14 mph (NW)    
Max Wind Speed 22 mph    
Max Gust Speed 21 mph    
Visibility 10 miles    
Events Snow    
Averages and records for this station are not official NWS values.
T = Trace of Precipitation, MM = Missing Value Source: NWS Daily Summary

Daily Weather History Graph

Daily Weather History Graph

Search for Another Location

Airport or City:

Trip Planner

Search our weather history database for the weather conditions in past years. The results will help you decide how hot, cold, wet, or windy it might be!

Date:

Astronomy

Feb. 05, 2014 Rise Set
Actual Time 8:02 AM CST 5:42 PM CST
Civil Twilight 7:29 AM CST 6:16 PM CST
Nautical Twilight 6:51 AM CST 6:54 PM CST
Astronomical Twilight 6:14 AM CST 7:30 PM CST
Moon 10:42 AM CST (2/5) 12:11 AM CST (2/5)
Length of Visible Light 10h 47m
Length of Day
9h 40m
Waxing Crescent, 39% of the Moon is Illuminated
Feb 5
Waxing Crescent
Feb 6
First Quarter
Feb 14
Full
Feb 22
Last Quarter
Mar 1
New

Hourly Weather History & Observations

Time (CST) Temp. Windchill Dew Point Humidity Pressure Visibility Wind Dir Wind Speed Gust Speed Precip Events Conditions
12:15 AM -2.2 °F -23.5 °F -9.4 °F 71% 30.53 in 10.0 mi NNW 17.3 mph - N/A   Overcast
12:35 AM -2.2 °F -23.5 °F -9.4 °F 71% 30.53 in 10.0 mi NNW 17.3 mph - N/A   Overcast
12:55 AM -2.2 °F -24.1 °F -9.4 °F 71% 30.53 in 10.0 mi NNW 18.4 mph - N/A   Overcast
1:15 AM -4.0 °F -26.4 °F -9.4 °F 78% 30.53 in 10.0 mi NNW 18.4 mph - N/A   Overcast
1:35 AM -4.0 °F -25.8 °F -9.4 °F 78% 30.53 in 10.0 mi NNW 17.3 mph - N/A   Overcast
1:55 AM -4.0 °F -25.8 °F -9.4 °F 78% 30.53 in 10.0 mi NNW 17.3 mph - N/A   Overcast
2:15 AM -4.0 °F -25.2 °F -9.4 °F 78% 30.54 in 10.0 mi NNW 16.1 mph - N/A   Overcast
2:35 AM -4.0 °F -23.7 °F -9.4 °F 78% 30.55 in 10.0 mi NNW 13.8 mph - N/A   Overcast
2:55 AM -4.0 °F -23.7 °F -9.4 °F 78% 30.55 in 10.0 mi NNW 13.8 mph - N/A   Overcast
3:15 AM -4.0 °F -22.1 °F -9.4 °F 78% 30.55 in 10.0 mi NNW 11.5 mph - N/A   Overcast
3:35 AM -4.0 °F -23.7 °F -9.4 °F 78% 30.55 in 10.0 mi NW 13.8 mph - N/A   Overcast
3:55 AM -4.0 °F -22.1 °F -9.4 °F 78% 30.56 in 10.0 mi NW 11.5 mph - N/A   Overcast
4:15 AM -4.0 °F -23.0 °F -9.4 °F 78% 30.56 in 10.0 mi NNW 12.7 mph - N/A   Overcast
4:35 AM -4.0 °F -23.7 °F -9.4 °F 78% 30.56 in 10.0 mi NNW 13.8 mph - N/A Snow Light Snow
4:55 AM -4.0 °F -23.0 °F -11.2 °F 71% 30.56 in 10.0 mi NNW 12.7 mph - N/A   Overcast
5:15 AM -4.0 °F -23.7 °F -9.4 °F 78% 30.56 in 10.0 mi NNW 13.8 mph - N/A   Overcast
5:35 AM -4.0 °F -23.7 °F -11.2 °F 71% 30.55 in 10.0 mi NNW 13.8 mph - N/A   Overcast
5:55 AM -4.0 °F -23.0 °F -11.2 °F 71% 30.55 in 10.0 mi NNW 12.7 mph - N/A   Mostly Cloudy
6:15 AM -4.0 °F -23.0 °F -11.2 °F 71% 30.55 in 10.0 mi NNW 12.7 mph - N/A   Overcast
6:35 AM -4.0 °F -22.1 °F -11.2 °F 71% 30.55 in 10.0 mi NNW 11.5 mph - N/A Snow Light Snow
6:55 AM -4.0 °F -23.0 °F -11.2 °F 71% 30.54 in 10.0 mi NW 12.7 mph - N/A   Mostly Cloudy
7:15 AM -4.0 °F -22.1 °F -11.2 °F 71% 30.54 in 10.0 mi NNW 11.5 mph - N/A   Mostly Cloudy
7:35 AM -5.8 °F -24.4 °F -11.2 °F 77% 30.54 in 10.0 mi NNW 11.5 mph - N/A Snow Light Snow
7:55 AM -5.8 °F -24.4 °F -11.2 °F 77% 30.54 in 10.0 mi NNW 11.5 mph - N/A   Mostly Cloudy
8:15 AM -5.8 °F -24.4 °F -11.2 °F 77% 30.54 in 10.0 mi NNW 11.5 mph - N/A   Overcast
8:35 AM -5.8 °F -24.4 °F -11.2 °F 77% 30.55 in 10.0 mi NW 11.5 mph - N/A   Overcast
8:55 AM -5.8 °F -24.4 °F -11.2 °F 77% 30.55 in 10.0 mi NW 11.5 mph - N/A   Overcast
9:15 AM -5.8 °F -23.4 °F - N/A% 30.55 in 10.0 mi NW 10.4 mph - N/A   Overcast
9:35 AM -5.8 °F -21.2 °F - N/A% 30.54 in 10.0 mi NW 8.1 mph - N/A   Overcast
9:55 AM -4.0 °F -19.0 °F -11.2 °F 71% 30.54 in 10.0 mi NW 8.1 mph - N/A   Overcast
10:15 AM -4.0 °F -19.0 °F -11.2 °F 71% 30.54 in 10.0 mi NW 8.1 mph - N/A   Overcast
10:35 AM -4.0 °F -23.0 °F -11.2 °F 71% 30.54 in 10.0 mi NNW 12.7 mph - N/A   Overcast
10:55 AM -4.0 °F -23.0 °F -11.2 °F 71% 30.54 in 10.0 mi NNW 12.7 mph - N/A   Overcast
11:15 AM -4.0 °F -22.1 °F -9.4 °F 78% 30.54 in 10.0 mi NW 11.5 mph - N/A   Mostly Cloudy
11:35 AM -4.0 °F -22.1 °F -9.4 °F 78% 30.54 in 10.0 mi NNW 11.5 mph - N/A   Scattered Clouds
11:55 AM -2.2 °F -21.5 °F -9.4 °F 71% 30.53 in 10.0 mi WNW 13.8 mph - N/A   Clear
12:15 PM -2.2 °F -19.9 °F -9.4 °F 71% 30.52 in 10.0 mi NNW 11.5 mph - N/A   Clear
12:35 PM -2.2 °F -22.9 °F -9.4 °F 71% 30.52 in 10.0 mi NNW 16.1 mph - N/A   Clear
12:55 PM -2.2 °F -24.1 °F -9.4 °F 71% 30.51 in 10.0 mi NW 18.4 mph - N/A   Clear
1:15 PM -2.2 °F -24.7 °F -9.4 °F 71% 30.51 in 10.0 mi NNW 19.6 mph - N/A   Clear
1:35 PM -2.2 °F -25.7 °F -9.4 °F 71% 30.50 in 10.0 mi NNW 21.9 mph - N/A   Clear
1:55 PM -2.2 °F -25.2 °F -11.2 °F 66% 30.49 in 10.0 mi NNW 20.7 mph - N/A   Clear
2:15 PM -2.2 °F -23.5 °F -9.4 °F 71% 30.48 in 10.0 mi NNW 17.3 mph - N/A   Clear
2:35 PM -0.4 °F -19.2 °F -9.4 °F 66% 30.48 in 10.0 mi NW 13.8 mph - N/A   Clear
2:55 PM -0.4 °F -19.2 °F -9.4 °F 66% 30.48 in 10.0 mi NNW 13.8 mph - N/A   Clear
3:15 PM -0.4 °F -19.2 °F -9.4 °F 66% 30.47 in 10.0 mi WNW 13.8 mph - N/A   Clear
3:35 PM -0.4 °F -18.4 °F -9.4 °F 66% 30.47 in 10.0 mi WNW 12.7 mph - N/A   Clear
3:55 PM -0.4 °F -19.2 °F -9.4 °F 66% 30.47 in 10.0 mi NW 13.8 mph - N/A   Clear
4:15 PM -2.2 °F -20.7 °F -11.2 °F 66% 30.47 in 10.0 mi WNW 12.7 mph - N/A   Clear
4:35 PM -2.2 °F -22.2 °F -11.2 °F 66% 30.46 in 10.0 mi WNW 15.0 mph - N/A   Clear
4:55 PM -2.2 °F -20.7 °F - N/A% 30.46 in 10.0 mi WNW 12.7 mph - N/A   Clear
5:15 PM -4.0 °F -23.0 °F -13.0 °F 65% 30.46 in 10.0 mi WNW 12.7 mph - N/A   Partly Cloudy
5:35 PM -4.0 °F -24.5 °F -13.0 °F 65% 30.45 in 10.0 mi NW 15.0 mph - N/A   Clear
5:55 PM -5.8 °F -26.0 °F -14.8 °F 65% 30.45 in 10.0 mi WNW 13.8 mph - N/A   Clear
6:15 PM -7.6 °F -26.6 °F -14.8 °F 71% 30.45 in 10.0 mi NW 11.5 mph - N/A   Clear
6:35 PM -7.6 °F -28.3 °F -13.0 °F 77% 30.44 in 10.0 mi NW 13.8 mph 17.3 mph N/A   Scattered Clouds
6:55 PM -7.6 °F -24.6 °F -13.0 °F 77% 30.43 in 10.0 mi WNW 9.2 mph - N/A   Scattered Clouds
7:15 PM -7.6 °F -25.7 °F -13.0 °F 77% 30.43 in 10.0 mi WNW 10.4 mph - N/A   Clear
7:35 PM -7.6 °F -27.5 °F -13.0 °F 77% 30.42 in 10.0 mi WNW 12.7 mph - N/A   Scattered Clouds
7:55 PM -7.6 °F -27.5 °F -13.0 °F 77% 30.41 in 10.0 mi WNW 12.7 mph 16.1 mph N/A   Mostly Cloudy
8:15 PM -7.6 °F -26.6 °F -13.0 °F 77% 30.41 in 10.0 mi WNW 11.5 mph - N/A   Overcast
8:35 PM -5.8 °F -23.4 °F -13.0 °F 71% 30.40 in 10.0 mi West 10.4 mph - N/A   Overcast
8:55 PM -7.6 °F -25.7 °F -13.0 °F 77% 30.39 in 10.0 mi WNW 10.4 mph - N/A   Overcast
9:15 PM -7.6 °F -23.4 °F -13.0 °F 77% 30.38 in 10.0 mi West 8.1 mph - N/A   Overcast
9:35 PM -7.6 °F -23.4 °F -14.8 °F 71% 30.38 in 10.0 mi West 8.1 mph - N/A   Scattered Clouds
9:55 PM -7.6 °F -28.3 °F -13.0 °F 77% 30.37 in 10.0 mi WNW 13.8 mph - N/A   Partly Cloudy
10:15 PM -5.8 °F -24.4 °F -13.0 °F 71% 30.37 in 10.0 mi WNW 11.5 mph - N/A   Scattered Clouds
10:35 PM -5.8 °F -28.2 °F -13.0 °F 71% 30.36 in 10.0 mi NW 17.3 mph 20.7 mph N/A   Partly Cloudy
10:55 PM -7.6 °F -29.1 °F -14.8 °F 71% 30.35 in 10.0 mi WNW 15.0 mph - N/A   Clear
11:15 PM -7.6 °F -27.5 °F -14.8 °F 71% 30.35 in 10.0 mi WNW 12.7 mph - N/A   Clear
11:35 PM -7.6 °F -27.5 °F -14.8 °F 71% 30.33 in 10.0 mi West 12.7 mph - N/A   Clear
11:55 PM -7.6 °F -25.7 °F -14.8 °F 71% 30.32 in 10.0 mi West 10.4 mph - N/A   Clear